User: anonymous   Login
Location: Fort Wayne
(41.1310°N, 85.1290°W)
Time: 11:42:40
(UTC-04:00)
Language:

Iridium 37 - Orbit

View from above orbital plane
View from above orbital plane
View from above satellite
View from above satellite

Ground track
Ground track

The orbit data is extracted from the following two-line orbital elements,

1 24968U 97056D   16144.38280431  .00000007  00000-0 -45788-5 0  9996
2 24968  86.3950 121.8456 0002254  85.9233 274.2221 14.34215101976668
Epoch (UTC): 23 May 2016 09:11:14
Eccentricity: 0.0002254
inclination: 86.3950°
perigee height: 776 km
apogee height: 779 km
right ascension of ascending node: 121.8456°
argument of perigee: 85.9233°
revolutions per day: 14.34215101
mean anomaly at epoch: 274.2221°
orbit number at epoch: 97666

The dashed part of the orbit path shows where the satellite is in the earth's shadow,  

DLR